Regional Weather Roundup
Issued by NWS Jackson, KY

Home | Current Version | Previous Version | Graphics & Text | Print | Product List | Glossary On
Versions: 1 2 3 4 5 6 7 8 9 10 11 12 13 14 15 16 17 18 19 20 21 22 23 24 25 26 27 28 29 30 31 32 33 34 35 36 37 38 39 40 41 42 43 44 45 46 47 48 49 50
000
ASUS43 KJKL 052310
RWRJKL

EAST KENTUCKY HOURLY WEATHER ROUNDUP
NATIONAL WEATHER SERVICE JACKSON KY
700 PM EDT TUE MAY 05 2015

NOTE: "FAIR" INDICATES FEW OR NO CLOUDS BELOW 12,000 FEET WITH
NO SIGNIFICANT WEATHER AND/OR OBSTRUCTIONS TO VISIBILITY.

* THESE REPORTS ARE NOT UNDER NWS QUALITY CONTROL AND MAY NOT
  REPORT WEATHER SUCH AS PRECIPITATION AND FOG.

KYZ079-080-083-085-087-088-110-112-115-119-120-060000
...EASTERN KENTUCKY...

CITY           SKY/WX    TMP DP  RH WIND       PRES   REMARKS
JACKSON        SUNNY     81  50  33 CALM      30.22F
LONDON         SUNNY     82  46  28 CALM      30.21F
SOMERSET*      SUNNY     79  48  34 W3        30.22S
MONTICELLO*    SUNNY     82  53  36 CALM      30.23F
MIDDLESBORO*   MOSUNNY   82  50  33 CALM      30.21S
HARLAN APT*    MOCLDY    79  45  29 CALM      30.23F
HAZARD APT*    MOCLDY    79  52  38 S6        30.22S
BLACK MTN*       N/A     66  50  55 N3          N/A
PIKEVILLE APT* MOSUNNY   79  52  38 CALM      30.22F
BIG SANDY*     CLEAR     82  52  35 CALM      30.21F
MOREHEAD APT*  CLEAR     81  52  36 CALM      30.23F
$$

KYZ035-036-041-042-044-050-067-078-099-060000
...CENTRAL KENTUCKY...

CITY           SKY/WX    TMP DP  RH WIND       PRES   REMARKS
MT STERLING*   SUNNY     81  54  39 CALM      30.22F
FLEMING/MASON* SUNNY     79  55  44 SW6       30.21F
DANVILLE*      SUNNY     79  55  44 CALM      30.22S
RICHMOND*      SUNNY     81  50  34 W3        30.20F
LEXINGTON      SUNNY     80  56  43 CALM      30.20F
FRANKFORT      MOSUNNY   81  52  36 SW8       30.18F
$$

KYZ091>093-OHZ055-061-077-WVZ005-015-034-035-042-060000
...SOUTHERN OHIO/WEST VIRGINIA...

CITY           SKY/WX    TMP DP  RH WIND       PRES   REMARKS
COVINGTON      MOSUNNY   80  53  39 SW5       30.18F
COLUMBUS       MOSUNNY   79  54  41 W7        30.17F
DAYTON         PTSUNNY   77  55  46 SW7       30.18F
WILMINGTON     MOSUNNY   77  53  43 SW6       30.18F
HUNTINGTON     MOSUNNY   80  51  36 CALM      30.19S
CHARLESTON     PTSUNNY   80  52  37 W6        30.19F
PINEVILLE*     LGT RAIN  76  57  51 MISG      30.29R
BECKLEY        PTSUNNY   73  49  42 N8        30.27S
BLUEFIELD      PTSUNNY   76  48  37 E3        30.29F
$$

VAZ002-007-008-TNZ017-027-036-066-071-060000
...SOUTHWEST VIRGINIA/EAST TENNESSEE...

CITY           SKY/WX    TMP DP  RH WIND       PRES   REMARKS
WISE*          CLOUDY    73  46  38 CALM      30.30S
JONESVILLE*    MOCLDY    82  46  28 CALM      30.24S
ABINGDON*      PTSUNNY   79  47  32 NE5       30.25S
BRISTOL        CLOUDY    81  45  28 S6        30.22S
KNOXVILLE      MOSUNNY   80  51  36 W5        30.19F
OAK RIDGE      SUNNY     84  49  29 CALM      30.20F
CROSSVILLE     SUNNY     79  48  33 NW5       30.24F
NASHVILLE      MOSUNNY   83  50  31 S6        30.18S
$$

...KEY TO REMARKS...
VSB - VISIBILITY IN MILES
WCI - WIND CHILL INDEX
HX  - HEAT INDEX

$$



USA.gov is the U.S. government's official web portal to all federal, state and local government web resources and services.